Location: Bucquoy
(50.1391°N, 2.7097°E)
Time: 03:20:06
(UTC+00:00)

Meteor 1-29 - Pass Details

Date: 06 May 2021
Orbit: 437 x 455 km, 97.7° (Epoch: 22 June)

Event Time Altitude Azimuth Distance (km) Brightness Sun altitude
Rises 02:07:14 0° 12° (NNE) 2,450 7.9 -16.4°
Reaches altitude 10° 02:09:16 10° 11° (N) 1,577 6.7 -16.2°
Maximum altitude 02:12:38 78° 285° (WNW) 463 2.8 -15.9°
Enters shadow 02:13:53 36° 205° (SSW) 729 3.4 -15.8°
